Time,TemperatureF,DewpointF,PressureIn,WindDirection,WindDirectionDegrees,WindSpeedMPH,WindSpeedGustMPH,Humidity,HourlyPrecipIn,Conditions,Clouds,dailyrainin,SoftwareType,DateUTC
2013-08-02 00:04:00,67.0,66.0,29.99,NW,315,0.0,0.0,99,0.00,,,0.00,Rainwise IP-100,2013-08-02 05:04:00,
2013-08-02 00:09:00,67.0,66.0,29.99,NW,315,0.0,0.0,99,0.00,,,0.00,Rainwise IP-100,2013-08-02 05:09:00,
2013-08-02 00:14:00,67.0,66.0,30.00,NW,315,0.0,0.0,99,0.00,,,0.00,Rainwise IP-100,2013-08-02 05:14:00,
2013-08-02 00:19:00,67.0,66.0,30.00,NW,315,0.0,0.0,99,0.00,,,0.00,Rainwise IP-100,2013-08-02 05:19:00,
2013-08-02 00:24:00,67.0,66.0,30.00,NW,315,0.0,0.0,99,0.00,,,0.00,Rainwise IP-100,2013-08-02 05:24:00,
2013-08-02 00:29:00,66.0,65.0,30.00,NW,315,0.0,0.0,99,0.00,,,0.00,Rainwise IP-100,2013-08-02 05:29:00,
2013-08-02 00:34:00,66.0,65.0,30.01,NW,315,0.0,0.0,99,0.00,,,0.00,Rainwise IP-100,2013-08-02 05:34:00,
2013-08-02 00:39:00,66.0,65.0,30.01,NW,315,0.0,0.0,99,0.00,,,0.00,Rainwise IP-100,2013-08-02 05:39:00,
2013-08-02 00:44:00,66.0,65.0,30.01,NW,315,0.0,0.0,99,0.00,,,0.00,Rainwise IP-100,2013-08-02 05:44:00,
2013-08-02 00:49:00,66.0,65.0,30.01,NW,315,0.0,0.0,99,0.00,,,0.00,Rainwise IP-100,2013-08-02 05:49:00,
2013-08-02 00:54:00,66.0,65.0,30.00,NW,315,0.0,0.0,99,0.00,,,0.00,Rainwise IP-100,2013-08-02 05:54:00,
2013-08-02 00:59:00,66.0,65.0,30.00,NW,315,0.0,0.0,99,0.00,,,0.00,Rainwise IP-100,2013-08-02 05:59:00,
2013-08-02 01:04:00,66.0,65.0,30.00,NW,315,0.0,1.0,99,0.00,,,0.00,Rainwise IP-100,2013-08-02 06:04:00,
2013-08-02 01:09:00,66.0,65.0,30.00,NW,315,0.0,1.0,99,0.00,,,0.00,Rainwise IP-100,2013-08-02 06:09:00,
2013-08-02 01:12:00,66.0,65.0,29.28,NW,315,0.0,0.0,99,0.00,,,0.00,Rainwise IP-100,2013-08-02 06:12:00,
2013-08-02 01:16:00,66.0,65.0,29.99,NW,315,0.0,0.0,99,0.00,,,0.00,Rainwise IP-100,2013-08-02 06:16:00,
2013-08-02 01:21:00,66.0,65.0,29.99,NW,315,0.0,0.0,99,0.00,,,0.00,Rainwise IP-100,2013-08-02 06:21:00,
2013-08-02 01:26:00,66.0,65.0,29.99,NW,315,0.0,0.0,99,0.00,,,0.00,Rainwise IP-100,2013-08-02 06:26:00,
2013-08-02 01:31:00,66.0,65.0,29.99,NW,315,0.0,3.0,99,0.00,,,0.00,Rainwise IP-100,2013-08-02 06:31:00,
2013-08-02 01:36:00,65.0,64.0,29.99,NW,315,0.0,0.0,99,0.00,,,0.00,Rainwise IP-100,2013-08-02 06:36:00,
2013-08-02 01:41:00,65.0,64.0,30.00,NW,315,0.0,0.0,99,0.00,,,0.00,Rainwise IP-100,2013-08-02 06:41:00,
2013-08-02 01:46:00,65.0,64.0,30.00,NW,315,0.0,0.0,99,0.00,,,0.00,Rainwise IP-100,2013-08-02 06:46:00,
2013-08-02 01:51:00,65.0,64.0,30.00,NW,315,0.0,0.0,99,0.00,,,0.00,Rainwise IP-100,2013-08-02 06:51:00,
2013-08-02 01:56:00,65.0,64.0,30.00,NW,315,0.0,0.0,99,0.00,,,0.00,Rainwise IP-100,2013-08-02 06:56:00,
2013-08-02 02:01:00,65.0,64.0,30.00,NW,315,0.0,0.0,99,0.00,,,0.00,Rainwise IP-100,2013-08-02 07:01:00,
2013-08-02 02:06:00,65.0,64.0,30.00,NW,315,0.0,0.0,99,0.00,,,0.00,Rainwise IP-100,2013-08-02 07:06:00,
2013-08-02 02:11:00,65.0,64.0,30.00,NW,315,0.0,0.0,99,0.00,,,0.00,Rainwise IP-100,2013-08-02 07:11:00,
2013-08-02 02:16:00,65.0,64.0,30.00,NW,315,0.0,0.0,99,0.00,,,0.00,Rainwise IP-100,2013-08-02 07:16:00,
2013-08-02 02:21:00,65.0,64.0,29.99,NW,315,0.0,0.0,99,0.00,,,0.00,Rainwise IP-100,2013-08-02 07:21:00,
2013-08-02 02:26:00,65.0,64.0,29.99,NW,315,0.0,0.0,99,0.00,,,0.00,Rainwise IP-100,2013-08-02 07:26:00,
2013-08-02 02:31:00,65.0,64.0,29.98,NW,315,2.0,3.0,99,0.00,,,0.00,Rainwise IP-100,2013-08-02 07:31:00,
2013-08-02 02:36:00,65.0,64.0,29.98,NW,315,1.0,3.0,99,0.00,,,0.00,Rainwise IP-100,2013-08-02 07:36:00,
2013-08-02 02:41:00,65.0,64.0,29.98,NW,315,0.0,2.0,99,0.00,,,0.00,Rainwise IP-100,2013-08-02 07:41:00,
2013-08-02 02:46:00,65.0,64.0,29.98,NW,315,0.0,0.0,99,0.00,,,0.00,Rainwise IP-100,2013-08-02 07:46:00,
2013-08-02 02:51:00,65.0,64.0,29.98,NW,315,0.0,0.0,99,0.00,,,0.00,Rainwise IP-100,2013-08-02 07:51:00,
2013-08-02 02:56:00,65.0,64.0,29.98,NW,315,1.0,1.0,99,0.00,,,0.00,Rainwise IP-100,2013-08-02 07:56:00,
2013-08-02 03:01:00,64.0,63.0,29.98,NW,315,1.0,2.0,98,0.00,,,0.00,Rainwise IP-100,2013-08-02 08:01:00,
2013-08-02 03:06:00,65.0,64.0,29.99,NW,315,0.0,3.0,99,0.00,,,0.00,Rainwise IP-100,2013-08-02 08:06:00,
2013-08-02 03:11:00,64.0,63.0,29.99,NW,315,0.0,2.0,98,0.00,,,0.00,Rainwise IP-100,2013-08-02 08:11:00,
2013-08-02 03:16:00,64.0,63.0,29.99,NW,315,0.0,0.0,98,0.00,,,0.00,Rainwise IP-100,2013-08-02 08:16:00,
2013-08-02 03:21:00,64.0,63.0,29.99,NW,315,0.0,0.0,98,0.00,,,0.00,Rainwise IP-100,2013-08-02 08:21:00,
2013-08-02 03:26:00,64.0,63.0,29.99,NW,315,0.0,0.0,98,0.00,,,0.00,Rainwise IP-100,2013-08-02 08:26:00,
2013-08-02 03:31:00,64.0,63.0,29.99,NW,315,0.0,0.0,98,0.00,,,0.00,Rainwise IP-100,2013-08-02 08:31:00,
2013-08-02 03:36:00,64.0,63.0,29.99,NW,315,0.0,0.0,98,0.00,,,0.00,Rainwise IP-100,2013-08-02 08:36:00,
2013-08-02 03:41:00,64.0,63.0,29.99,NW,315,0.0,0.0,98,0.00,,,0.00,Rainwise IP-100,2013-08-02 08:41:00,
2013-08-02 03:46:00,64.0,63.0,29.99,NW,315,0.0,0.0,98,0.00,,,0.00,Rainwise IP-100,2013-08-02 08:46:00,
2013-08-02 03:51:00,64.0,63.0,29.99,NW,315,0.0,0.0,98,0.00,,,0.00,Rainwise IP-100,2013-08-02 08:51:00,
2013-08-02 03:56:00,64.0,63.0,29.99,NW,315,0.0,0.0,98,0.00,,,0.00,Rainwise IP-100,2013-08-02 08:56:00,
2013-08-02 04:01:00,64.0,63.0,29.99,NW,315,0.0,0.0,98,0.00,,,0.00,Rainwise IP-100,2013-08-02 09:01:00,
2013-08-02 04:06:00,64.0,63.0,29.99,NW,315,0.0,0.0,98,0.00,,,0.00,Rainwise IP-100,2013-08-02 09:06:00,
2013-08-02 04:11:00,64.0,63.0,29.99,NW,315,0.0,2.0,98,0.00,,,0.00,Rainwise IP-100,2013-08-02 09:11:00,
2013-08-02 04:16:00,64.0,63.0,29.99,NW,315,0.0,1.0,98,0.00,,,0.00,Rainwise IP-100,2013-08-02 09:16:00,
2013-08-02 04:21:00,64.0,63.0,29.99,NW,315,0.0,0.0,98,0.00,,,0.00,Rainwise IP-100,2013-08-02 09:21:00,
2013-08-02 04:26:00,64.0,63.0,29.99,NW,315,0.0,0.0,98,0.00,,,0.00,Rainwise IP-100,2013-08-02 09:26:00,
2013-08-02 04:31:00,64.0,63.0,29.99,NW,315,0.0,0.0,98,0.00,,,0.00,Rainwise IP-100,2013-08-02 09:31:00,
2013-08-02 04:36:00,63.0,62.0,29.99,NW,315,0.0,0.0,98,0.00,,,0.00,Rainwise IP-100,2013-08-02 09:36:00,
2013-08-02 04:41:00,63.0,62.0,30.00,NW,315,0.0,0.0,98,0.00,,,0.00,Rainwise IP-100,2013-08-02 09:41:00,
2013-08-02 04:46:00,64.0,63.0,29.99,NW,315,0.0,0.0,98,0.00,,,0.00,Rainwise IP-100,2013-08-02 09:46:00,
2013-08-02 04:51:00,63.0,62.0,29.99,NW,315,0.0,0.0,98,0.00,,,0.00,Rainwise IP-100,2013-08-02 09:51:00,
2013-08-02 04:56:00,63.0,62.0,29.99,NW,315,0.0,0.0,98,0.00,,,0.00,Rainwise IP-100,2013-08-02 09:56:00,
2013-08-02 05:01:00,63.0,62.0,30.00,NW,315,0.0,0.0,98,0.00,,,0.00,Rainwise IP-100,2013-08-02 10:01:00,
2013-08-02 05:06:00,63.0,62.0,30.00,NW,315,0.0,0.0,98,0.00,,,0.00,Rainwise IP-100,2013-08-02 10:06:00,
2013-08-02 05:11:00,63.0,62.0,30.00,NW,315,0.0,0.0,98,0.00,,,0.00,Rainwise IP-100,2013-08-02 10:11:00,
2013-08-02 05:16:00,63.0,62.0,30.00,NW,315,0.0,0.0,98,0.00,,,0.00,Rainwise IP-100,2013-08-02 10:16:00,
2013-08-02 05:21:00,63.0,62.0,29.99,NW,315,0.0,0.0,98,0.00,,,0.00,Rainwise IP-100,2013-08-02 10:21:00,
2013-08-02 05:26:00,63.0,62.0,29.99,NW,315,0.0,0.0,98,0.00,,,0.00,Rainwise IP-100,2013-08-02 10:26:00,
2013-08-02 05:31:00,63.0,62.0,29.99,NW,315,0.0,0.0,98,0.00,,,0.00,Rainwise IP-100,2013-08-02 10:31:00,
2013-08-02 05:36:00,63.0,62.0,29.99,NW,315,3.0,3.0,98,0.00,,,0.00,Rainwise IP-100,2013-08-02 10:36:00,
2013-08-02 05:41:00,63.0,62.0,30.00,NW,315,0.0,3.0,98,0.00,,,0.00,Rainwise IP-100,2013-08-02 10:41:00,
2013-08-02 05:46:00,63.0,62.0,30.00,NW,315,0.0,0.0,98,0.00,,,0.00,Rainwise IP-100,2013-08-02 10:46:00,
2013-08-02 05:51:00,63.0,62.0,30.00,NW,315,3.0,3.0,98,0.00,,,0.00,Rainwise IP-100,2013-08-02 10:51:00,
2013-08-02 05:56:00,63.0,62.0,30.00,NW,315,0.0,3.0,98,0.00,,,0.00,Rainwise IP-100,2013-08-02 10:56:00,
2013-08-02 06:01:00,63.0,62.0,30.00,NW,315,0.0,0.0,98,0.00,,,0.00,Rainwise IP-100,2013-08-02 11:01:00,
2013-08-02 06:06:00,63.0,62.0,30.01,NW,315,0.0,0.0,98,0.00,,,0.00,Rainwise IP-100,2013-08-02 11:06:00,
2013-08-02 06:11:00,63.0,62.0,30.01,NW,315,0.0,0.0,98,0.00,,,0.00,Rainwise IP-100,2013-08-02 11:11:00,
2013-08-02 06:16:00,63.0,62.0,30.01,NW,315,0.0,0.0,98,0.00,,,0.00,Rainwise IP-100,2013-08-02 11:16:00,
2013-08-02 06:21:00,63.0,62.0,30.01,NW,315,0.0,0.0,98,0.00,,,0.00,Rainwise IP-100,2013-08-02 11:21:00,
2013-08-02 06:26:00,63.0,62.0,30.01,NW,315,0.0,0.0,98,0.00,,,0.00,Rainwise IP-100,2013-08-02 11:26:00,
2013-08-02 06:31:00,63.0,62.0,30.01,SSE,157,0.0,0.0,98,0.00,,,0.00,Rainwise IP-100,2013-08-02 11:31:00,
2013-08-02 06:36:00,63.0,62.0,30.01,SSE,157,0.0,0.0,98,0.00,,,0.00,Rainwise IP-100,2013-08-02 11:36:00,
2013-08-02 06:41:00,63.0,62.0,30.01,SSE,157,0.0,0.0,98,0.00,,,0.00,Rainwise IP-100,2013-08-02 11:41:00,
2013-08-02 06:46:00,63.0,62.0,30.01,SSE,157,0.0,0.0,98,0.00,,,0.00,Rainwise IP-100,2013-08-02 11:46:00,
2013-08-02 06:51:00,63.0,62.0,30.01,SSE,157,0.0,0.0,98,0.00,,,0.00,Rainwise IP-100,2013-08-02 11:51:00,
2013-08-02 06:56:00,63.0,62.0,30.01,SSE,157,0.0,0.0,98,0.00,,,0.00,Rainwise IP-100,2013-08-02 11:56:00,
2013-08-02 07:01:00,63.0,62.0,30.01,SSE,157,0.0,0.0,98,0.00,,,0.00,Rainwise IP-100,2013-08-02 12:01:00,
2013-08-02 07:06:00,63.0,62.0,30.00,SSE,157,0.0,0.0,98,0.00,,,0.00,Rainwise IP-100,2013-08-02 12:06:00,
2013-08-02 07:11:00,63.0,62.0,30.00,SSE,157,0.0,0.0,98,0.00,,,0.00,Rainwise IP-100,2013-08-02 12:11:00,
2013-08-02 07:16:00,65.0,64.0,29.99,SSE,157,0.0,0.0,99,0.00,,,0.00,Rainwise IP-100,2013-08-02 12:16:00,
2013-08-02 07:21:00,65.0,64.0,29.99,SSE,157,0.0,0.0,99,0.00,,,0.00,Rainwise IP-100,2013-08-02 12:21:00,
2013-08-02 07:26:00,66.0,65.0,30.00,SSE,157,0.0,0.0,99,0.00,,,0.00,Rainwise IP-100,2013-08-02 12:26:00,
2013-08-02 07:31:00,66.0,65.0,30.00,SSE,157,0.0,0.0,99,0.00,,,0.00,Rainwise IP-100,2013-08-02 12:31:00,
2013-08-02 07:36:00,67.0,66.0,30.00,SSE,157,0.0,0.0,99,0.00,,,0.00,Rainwise IP-100,2013-08-02 12:36:00,
2013-08-02 07:41:00,67.0,66.0,30.00,SE,135,0.0,0.0,99,0.00,,,0.00,Rainwise IP-100,2013-08-02 12:41:00,
2013-08-02 07:46:00,67.0,66.0,30.00,SE,135,0.0,0.0,99,0.00,,,0.00,Rainwise IP-100,2013-08-02 12:46:00,
2013-08-02 07:51:00,67.0,66.0,30.00,SE,135,0.0,0.0,99,0.00,,,0.00,Rainwise IP-100,2013-08-02 12:51:00,
2013-08-02 07:56:00,67.0,66.0,30.00,SE,135,0.0,0.0,99,0.00,,,0.00,Rainwise IP-100,2013-08-02 12:56:00,
2013-08-02 08:01:00,67.0,66.0,30.00,SE,135,0.0,0.0,99,0.00,,,0.00,Rainwise IP-100,2013-08-02 13:01:00,
2013-08-02 08:06:00,67.0,66.0,30.00,SE,135,0.0,0.0,99,0.00,,,0.00,Rainwise IP-100,2013-08-02 13:06:00,
2013-08-02 08:11:00,67.0,66.0,30.00,SE,135,0.0,0.0,99,0.00,,,0.00,Rainwise IP-100,2013-08-02 13:11:00,
2013-08-02 08:16:00,67.0,66.0,30.00,SE,135,0.0,0.0,99,0.00,,,0.00,Rainwise IP-100,2013-08-02 13:16:00,
2013-08-02 08:21:00,67.0,66.0,30.00,SE,135,0.0,0.0,99,0.00,,,0.00,Rainwise IP-100,2013-08-02 13:21:00,
2013-08-02 08:26:00,67.0,66.0,30.00,SE,135,0.0,0.0,99,0.00,,,0.00,Rainwise IP-100,2013-08-02 13:26:00,
2013-08-02 08:31:00,73.0,72.0,30.01,South,180,0.0,2.0,99,0.00,,,0.00,Rainwise IP-100,2013-08-02 13:31:00,
2013-08-02 08:36:00,72.0,71.0,30.01,SW,225,4.0,4.0,99,0.00,,,0.00,Rainwise IP-100,2013-08-02 13:36:00,
2013-08-02 08:41:00,74.0,73.0,30.01,SW,225,0.0,4.0,99,0.00,,,0.00,Rainwise IP-100,2013-08-02 13:41:00,
2013-08-02 08:46:00,74.0,73.0,30.01,SW,225,0.0,0.0,99,0.00,,,0.00,Rainwise IP-100,2013-08-02 13:46:00,
2013-08-02 08:51:00,74.0,73.0,30.01,SW,225,0.0,0.0,99,0.00,,,0.00,Rainwise IP-100,2013-08-02 13:51:00,
2013-08-02 08:56:00,74.0,73.0,30.01,SW,225,0.0,0.0,99,0.00,,,0.00,Rainwise IP-100,2013-08-02 13:56:00,
2013-08-02 09:01:00,74.0,73.0,30.01,SW,225,0.0,0.0,99,0.00,,,0.00,Rainwise IP-100,2013-08-02 14:01:00,
2013-08-02 09:06:00,74.0,73.0,30.01,SW,225,0.0,0.0,99,0.00,,,0.00,Rainwise IP-100,2013-08-02 14:06:00,
2013-08-02 09:11:00,74.0,73.0,30.01,SW,225,0.0,0.0,99,0.00,,,0.00,Rainwise IP-100,2013-08-02 14:11:00,
2013-08-02 09:16:00,74.0,73.0,30.01,SW,225,0.0,0.0,99,0.00,,,0.00,Rainwise IP-100,2013-08-02 14:16:00,
2013-08-02 09:21:00,78.0,68.0,30.01,South,180,2.0,0.0,72,0.00,,,0.00,Rainwise IP-100,2013-08-02 14:21:00,
2013-08-02 09:26:00,78.0,68.0,30.01,South,180,0.0,3.0,72,0.00,,,0.00,Rainwise IP-100,2013-08-02 14:26:00,
2013-08-02 09:31:00,78.0,68.0,30.01,South,180,2.0,3.0,72,0.00,,,0.00,Rainwise IP-100,2013-08-02 14:31:00,
2013-08-02 09:36:00,78.0,68.0,30.01,South,180,3.0,3.0,72,0.00,,,0.00,Rainwise IP-100,2013-08-02 14:36:00,
2013-08-02 09:41:00,78.0,68.0,30.01,South,180,3.0,3.0,72,0.00,,,0.00,Rainwise IP-100,2013-08-02 14:41:00,
2013-08-02 09:46:00,78.0,68.0,30.01,South,180,0.0,3.0,72,0.00,,,0.00,Rainwise IP-100,2013-08-02 14:46:00,
2013-08-02 09:51:00,78.0,68.0,30.01,South,180,0.0,3.0,72,0.00,,,0.00,Rainwise IP-100,2013-08-02 14:51:00,
2013-08-02 09:56:00,78.0,68.0,30.01,South,180,3.0,3.0,72,0.00,,,0.00,Rainwise IP-100,2013-08-02 14:56:00,
2013-08-02 10:01:00,78.0,68.0,30.01,South,180,3.0,3.0,72,0.00,,,0.00,Rainwise IP-100,2013-08-02 15:01:00,
2013-08-02 10:06:00,78.0,68.0,30.01,South,180,0.0,3.0,72,0.00,,,0.00,Rainwise IP-100,2013-08-02 15:06:00,
2013-08-02 10:11:00,78.0,68.0,30.01,South,180,3.0,3.0,72,0.00,,,0.00,Rainwise IP-100,2013-08-02 15:11:00,
2013-08-02 10:16:00,78.0,68.0,30.01,South,180,0.0,3.0,72,0.00,,,0.00,Rainwise IP-100,2013-08-02 15:16:00,
2013-08-02 10:21:00,78.0,68.0,30.01,South,180,0.0,3.0,72,0.00,,,0.00,Rainwise IP-100,2013-08-02 15:21:00,
2013-08-02 10:26:00,78.0,68.0,30.01,South,180,0.0,3.0,72,0.00,,,0.00,Rainwise IP-100,2013-08-02 15:26:00,
2013-08-02 10:31:00,78.0,68.0,30.01,South,180,0.0,3.0,72,0.00,,,0.00,Rainwise IP-100,2013-08-02 15:31:00,
2013-08-02 10:36:00,78.0,68.0,30.01,South,180,0.0,3.0,72,0.00,,,0.00,Rainwise IP-100,2013-08-02 15:36:00,
2013-08-02 10:41:00,78.0,68.0,30.01,South,180,0.0,3.0,72,0.00,,,0.00,Rainwise IP-100,2013-08-02 15:41:00,
2013-08-02 10:46:00,78.0,68.0,30.01,South,180,0.0,3.0,72,0.00,,,0.00,Rainwise IP-100,2013-08-02 15:46:00,
2013-08-02 10:51:00,78.0,68.0,30.01,South,180,0.0,3.0,72,0.00,,,0.00,Rainwise IP-100,2013-08-02 15:51:00,
2013-08-02 10:56:00,78.0,68.0,30.01,South,180,0.0,3.0,72,0.00,,,0.00,Rainwise IP-100,2013-08-02 15:56:00,
2013-08-02 11:01:00,78.0,68.0,30.01,South,180,0.0,3.0,72,0.00,,,0.00,Rainwise IP-100,2013-08-02 16:01:00,
2013-08-02 11:06:00,78.0,68.0,30.01,South,180,0.0,3.0,72,0.00,,,0.00,Rainwise IP-100,2013-08-02 16:06:00,
2013-08-02 11:11:00,78.0,68.0,30.01,South,180,0.0,3.0,72,0.00,,,0.00,Rainwise IP-100,2013-08-02 16:11:00,
2013-08-02 11:16:00,78.0,68.0,30.01,South,180,0.0,3.0,72,0.00,,,0.00,Rainwise IP-100,2013-08-02 16:16:00,
2013-08-02 11:21:00,78.0,68.0,30.01,South,180,0.0,3.0,72,0.00,,,0.00,Rainwise IP-100,2013-08-02 16:21:00,
2013-08-02 11:26:00,78.0,68.0,30.01,South,180,0.0,3.0,72,0.00,,,0.00,Rainwise IP-100,2013-08-02 16:26:00,
2013-08-02 11:31:00,78.0,68.0,30.01,South,180,0.0,3.0,72,0.00,,,0.00,Rainwise IP-100,2013-08-02 16:31:00,
2013-08-02 11:36:00,78.0,68.0,30.01,South,180,0.0,3.0,72,0.00,,,0.00,Rainwise IP-100,2013-08-02 16:36:00,
2013-08-02 11:41:00,78.0,68.0,30.01,South,180,0.0,3.0,72,0.00,,,0.00,Rainwise IP-100,2013-08-02 16:41:00,
2013-08-02 11:46:00,78.0,68.0,30.01,South,180,0.0,3.0,72,0.00,,,0.00,Rainwise IP-100,2013-08-02 16:46:00,
2013-08-02 11:51:00,78.0,68.0,30.01,South,180,0.0,3.0,72,0.00,,,0.00,Rainwise IP-100,2013-08-02 16:51:00,
2013-08-02 11:56:00,78.0,68.0,30.01,South,180,0.0,3.0,72,0.00,,,0.00,Rainwise IP-100,2013-08-02 16:56:00,
2013-08-02 12:01:00,78.0,68.0,30.01,South,180,0.0,3.0,72,0.00,,,0.00,Rainwise IP-100,2013-08-02 17:01:00,
2013-08-02 12:06:00,78.0,68.0,30.01,South,180,0.0,3.0,72,0.00,,,0.00,Rainwise IP-100,2013-08-02 17:06:00,
2013-08-02 12:11:00,78.0,68.0,30.01,South,180,0.0,3.0,72,0.00,,,0.00,Rainwise IP-100,2013-08-02 17:11:00,
2013-08-02 12:16:00,78.0,68.0,30.01,South,180,0.0,3.0,72,0.00,,,0.00,Rainwise IP-100,2013-08-02 17:16:00,
2013-08-02 12:21:00,78.0,68.0,30.01,South,180,0.0,3.0,72,0.00,,,0.00,Rainwise IP-100,2013-08-02 17:21:00,
2013-08-02 12:26:00,78.0,68.0,30.01,South,180,0.0,3.0,72,0.00,,,0.00,Rainwise IP-100,2013-08-02 17:26:00,
2013-08-02 12:31:00,78.0,68.0,30.01,South,180,0.0,3.0,72,0.00,,,0.00,Rainwise IP-100,2013-08-02 17:31:00,
2013-08-02 12:36:00,78.0,68.0,30.01,South,180,0.0,3.0,72,0.00,,,0.00,Rainwise IP-100,2013-08-02 17:36:00,
2013-08-02 12:41:00,78.0,68.0,30.01,South,180,0.0,3.0,72,0.00,,,0.00,Rainwise IP-100,2013-08-02 17:41:00,
2013-08-02 12:46:00,78.0,68.0,30.01,South,180,0.0,3.0,72,0.00,,,0.00,Rainwise IP-100,2013-08-02 17:46:00,
2013-08-02 12:51:00,78.0,68.0,30.01,South,180,0.0,3.0,72,0.00,,,0.00,Rainwise IP-100,2013-08-02 17:51:00,
2013-08-02 12:56:00,78.0,68.0,30.01,South,180,0.0,3.0,72,0.00,,,0.00,Rainwise IP-100,2013-08-02 17:56:00,
2013-08-02 13:01:00,78.0,68.0,30.01,South,180,0.0,3.0,72,0.00,,,0.00,Rainwise IP-100,2013-08-02 18:01:00,
2013-08-02 13:06:00,78.0,68.0,30.01,South,180,0.0,3.0,72,0.00,,,0.00,Rainwise IP-100,2013-08-02 18:06:00,
2013-08-02 13:11:00,78.0,68.0,30.01,South,180,0.0,3.0,72,0.00,,,0.00,Rainwise IP-100,2013-08-02 18:11:00,
2013-08-02 13:16:00,78.0,68.0,30.01,South,180,0.0,3.0,72,0.00,,,0.00,Rainwise IP-100,2013-08-02 18:16:00,
2013-08-02 13:21:00,78.0,68.0,30.01,South,180,0.0,3.0,72,0.00,,,0.00,Rainwise IP-100,2013-08-02 18:21:00,
2013-08-02 13:26:00,78.0,68.0,30.01,South,180,0.0,3.0,72,0.00,,,0.00,Rainwise IP-100,2013-08-02 18:26:00,
2013-08-02 13:31:00,78.0,68.0,30.01,South,180,0.0,3.0,72,0.00,,,0.00,Rainwise IP-100,2013-08-02 18:31:00,
2013-08-02 13:36:00,78.0,68.0,30.01,South,180,0.0,3.0,72,0.00,,,0.00,Rainwise IP-100,2013-08-02 18:36:00,
2013-08-02 13:41:00,78.0,68.0,30.01,South,180,0.0,3.0,72,0.00,,,0.00,Rainwise IP-100,2013-08-02 18:41:00,
2013-08-02 13:46:00,78.0,68.0,30.01,South,180,0.0,3.0,72,0.00,,,0.00,Rainwise IP-100,2013-08-02 18:46:00,
2013-08-02 13:51:00,78.0,68.0,30.01,South,180,0.0,3.0,72,0.00,,,0.00,Rainwise IP-100,2013-08-02 18:51:00,
2013-08-02 13:56:00,78.0,68.0,30.01,South,180,0.0,3.0,72,0.00,,,0.00,Rainwise IP-100,2013-08-02 18:56:00,
2013-08-02 14:01:00,78.0,68.0,30.01,South,180,0.0,3.0,72,0.00,,,0.00,Rainwise IP-100,2013-08-02 19:01:00,
2013-08-02 14:06:00,78.0,68.0,30.01,South,180,0.0,3.0,72,0.00,,,0.00,Rainwise IP-100,2013-08-02 19:06:00,
2013-08-02 14:11:00,78.0,68.0,30.01,South,180,0.0,3.0,72,0.00,,,0.00,Rainwise IP-100,2013-08-02 19:11:00,
2013-08-02 14:16:00,78.0,68.0,30.01,South,180,0.0,3.0,72,0.00,,,0.00,Rainwise IP-100,2013-08-02 19:16:00,
2013-08-02 14:21:00,78.0,68.0,30.01,South,180,0.0,3.0,72,0.00,,,0.00,Rainwise IP-100,2013-08-02 19:21:00,
2013-08-02 14:26:00,78.0,68.0,30.01,South,180,0.0,3.0,72,0.00,,,0.00,Rainwise IP-100,2013-08-02 19:26:00,
2013-08-02 14:31:00,78.0,68.0,30.01,South,180,0.0,3.0,72,0.00,,,0.00,Rainwise IP-100,2013-08-02 19:31:00,
2013-08-02 14:36:00,78.0,68.0,30.01,South,180,0.0,3.0,72,0.00,,,0.00,Rainwise IP-100,2013-08-02 19:36:00,
2013-08-02 14:41:00,78.0,68.0,30.01,South,180,0.0,3.0,72,0.00,,,0.00,Rainwise IP-100,2013-08-02 19:41:00,
2013-08-02 14:46:00,78.0,68.0,30.01,South,180,0.0,3.0,72,0.00,,,0.00,Rainwise IP-100,2013-08-02 19:46:00,
2013-08-02 14:51:00,78.0,68.0,30.01,South,180,0.0,3.0,72,0.00,,,0.00,Rainwise IP-100,2013-08-02 19:51:00,
2013-08-02 14:56:00,78.0,68.0,30.01,South,180,0.0,3.0,72,0.00,,,0.00,Rainwise IP-100,2013-08-02 19:56:00,
2013-08-02 15:01:00,78.0,68.0,30.01,South,180,0.0,3.0,72,0.00,,,0.00,Rainwise IP-100,2013-08-02 20:01:00,
2013-08-02 15:06:00,78.0,68.0,30.01,South,180,0.0,3.0,72,0.00,,,0.00,Rainwise IP-100,2013-08-02 20:06:00,
2013-08-02 15:11:00,78.0,68.0,30.01,South,180,0.0,3.0,72,0.00,,,0.00,Rainwise IP-100,2013-08-02 20:11:00,
2013-08-02 15:16:00,78.0,68.0,30.01,South,180,0.0,3.0,72,0.00,,,0.00,Rainwise IP-100,2013-08-02 20:16:00,
2013-08-02 15:21:00,78.0,68.0,30.01,South,180,0.0,3.0,72,0.00,,,0.00,Rainwise IP-100,2013-08-02 20:21:00,
2013-08-02 15:26:00,78.0,68.0,30.01,South,180,0.0,3.0,72,0.00,,,0.00,Rainwise IP-100,2013-08-02 20:26:00,
2013-08-02 15:31:00,78.0,68.0,30.01,South,180,0.0,3.0,72,0.00,,,0.00,Rainwise IP-100,2013-08-02 20:31:00,
2013-08-02 15:36:00,78.0,68.0,30.01,South,180,0.0,3.0,72,0.00,,,0.00,Rainwise IP-100,2013-08-02 20:36:00,
2013-08-02 15:41:00,78.0,68.0,30.01,South,180,0.0,3.0,72,0.00,,,0.00,Rainwise IP-100,2013-08-02 20:41:00,
2013-08-02 15:46:00,78.0,68.0,30.01,South,180,0.0,3.0,72,0.00,,,0.00,Rainwise IP-100,2013-08-02 20:46:00,
2013-08-02 15:51:00,78.0,68.0,30.01,South,180,0.0,3.0,72,0.00,,,0.00,Rainwise IP-100,2013-08-02 20:51:00,
2013-08-02 15:56:00,78.0,68.0,30.01,South,180,0.0,3.0,72,0.00,,,0.00,Rainwise IP-100,2013-08-02 20:56:00,
2013-08-02 16:01:00,78.0,68.0,30.01,South,180,0.0,3.0,72,0.00,,,0.00,Rainwise IP-100,2013-08-02 21:01:00,
2013-08-02 16:06:00,78.0,68.0,30.01,South,180,0.0,3.0,72,0.00,,,0.00,Rainwise IP-100,2013-08-02 21:06:00,
2013-08-02 16:11:00,78.0,68.0,30.01,South,180,0.0,3.0,72,0.00,,,0.00,Rainwise IP-100,2013-08-02 21:11:00,
2013-08-02 16:16:00,78.0,68.0,30.01,South,180,0.0,3.0,72,0.00,,,0.00,Rainwise IP-100,2013-08-02 21:16:00,
2013-08-02 16:21:00,78.0,68.0,30.01,South,180,0.0,3.0,72,0.00,,,0.00,Rainwise IP-100,2013-08-02 21:21:00,
2013-08-02 16:26:00,78.0,68.0,30.01,South,180,0.0,3.0,72,0.00,,,0.00,Rainwise IP-100,2013-08-02 21:26:00,
2013-08-02 16:31:00,78.0,68.0,30.01,South,180,0.0,3.0,72,0.00,,,0.00,Rainwise IP-100,2013-08-02 21:31:00,
2013-08-02 16:36:00,78.0,68.0,30.01,South,180,0.0,3.0,72,0.00,,,0.00,Rainwise IP-100,2013-08-02 21:36:00,
2013-08-02 16:41:00,78.0,68.0,30.01,South,180,1.0,3.0,72,0.00,,,0.00,Rainwise IP-100,2013-08-02 21:41:00,
2013-08-02 16:47:00,78.0,68.0,30.01,South,180,0.0,3.0,72,0.00,,,0.00,Rainwise IP-100,2013-08-02 21:47:00,
2013-08-02 16:52:00,78.0,68.0,30.01,South,180,0.0,3.0,72,0.00,,,0.00,Rainwise IP-100,2013-08-02 21:52:00,
2013-08-02 16:57:00,78.0,68.0,30.01,South,180,0.0,3.0,72,0.00,,,0.00,Rainwise IP-100,2013-08-02 21:57:00,
2013-08-02 17:02:00,78.0,68.0,30.01,South,180,0.0,3.0,72,0.00,,,0.00,Rainwise IP-100,2013-08-02 22:02:00,
2013-08-02 17:07:00,78.0,68.0,30.01,South,180,0.0,3.0,72,0.00,,,0.00,Rainwise IP-100,2013-08-02 22:07:00,
2013-08-02 17:12:00,78.0,68.0,30.01,South,180,0.0,3.0,72,0.00,,,0.00,Rainwise IP-100,2013-08-02 22:12:00,
2013-08-02 17:17:00,78.0,68.0,30.01,South,180,0.0,3.0,72,0.00,,,0.00,Rainwise IP-100,2013-08-02 22:17:00,
2013-08-02 17:22:00,78.0,68.0,30.01,South,180,0.0,3.0,72,0.00,,,0.00,Rainwise IP-100,2013-08-02 22:22:00,
2013-08-02 17:27:00,78.0,68.0,30.01,South,180,0.0,3.0,72,0.00,,,0.00,Rainwise IP-100,2013-08-02 22:27:00,
2013-08-02 17:32:00,78.0,68.0,30.01,South,180,0.0,3.0,72,0.00,,,0.00,Rainwise IP-100,2013-08-02 22:32:00,
2013-08-02 17:37:00,78.0,68.0,30.01,South,180,0.0,3.0,72,0.00,,,0.00,Rainwise IP-100,2013-08-02 22:37:00,
2013-08-02 17:42:00,78.0,68.0,30.01,South,180,0.0,3.0,72,0.00,,,0.00,Rainwise IP-100,2013-08-02 22:42:00,
2013-08-02 17:47:00,78.0,68.0,30.01,South,180,0.0,3.0,72,0.00,,,0.00,Rainwise IP-100,2013-08-02 22:47:00,
2013-08-02 17:52:00,78.0,68.0,30.01,South,180,0.0,3.0,72,0.00,,,0.00,Rainwise IP-100,2013-08-02 22:52:00,
2013-08-02 17:57:00,78.0,68.0,30.01,South,180,0.0,3.0,72,0.00,,,0.00,Rainwise IP-100,2013-08-02 22:57:00,
2013-08-02 18:02:00,78.0,68.0,30.01,South,180,0.0,3.0,72,0.00,,,0.00,Rainwise IP-100,2013-08-02 23:02:00,
2013-08-02 18:07:00,78.0,68.0,30.01,South,180,0.0,3.0,72,0.00,,,0.00,Rainwise IP-100,2013-08-02 23:07:00,
2013-08-02 18:12:00,78.0,68.0,30.01,South,180,0.0,3.0,72,0.00,,,0.00,Rainwise IP-100,2013-08-02 23:12:00,
2013-08-02 18:17:00,78.0,68.0,30.01,South,180,0.0,3.0,72,0.00,,,0.00,Rainwise IP-100,2013-08-02 23:17:00,
2013-08-02 18:22:00,78.0,68.0,30.01,South,180,0.0,3.0,72,0.00,,,0.00,Rainwise IP-100,2013-08-02 23:22:00,
2013-08-02 18:27:00,78.0,68.0,30.01,South,180,0.0,3.0,72,0.00,,,0.00,Rainwise IP-100,2013-08-02 23:27:00,
2013-08-02 18:32:00,78.0,68.0,30.01,South,180,0.0,3.0,72,0.00,,,0.00,Rainwise IP-100,2013-08-02 23:32:00,
2013-08-02 18:37:00,78.0,68.0,30.01,South,180,0.0,3.0,72,0.00,,,0.00,Rainwise IP-100,2013-08-02 23:37:00,
2013-08-02 18:42:00,78.0,68.0,30.01,South,180,0.0,3.0,72,0.00,,,0.00,Rainwise IP-100,2013-08-02 23:42:00,
2013-08-02 18:47:00,78.0,68.0,30.01,South,180,0.0,3.0,72,0.00,,,0.00,Rainwise IP-100,2013-08-02 23:47:00,
2013-08-02 18:52:00,78.0,68.0,30.01,South,180,0.0,3.0,72,0.00,,,0.00,Rainwise IP-100,2013-08-02 23:52:00,
2013-08-02 18:57:00,78.0,68.0,30.01,South,180,0.0,3.0,72,0.00,,,0.00,Rainwise IP-100,2013-08-02 23:57:00,
2013-08-02 19:01:00,78.0,68.0,30.01,South,180,0.0,3.0,72,0.00,,,0.00,Rainwise IP-100,2013-08-03 00:01:00,
2013-08-02 19:02:00,78.0,68.0,30.01,South,180,0.0,3.0,72,0.00,,,0.00,Rainwise IP-100,2013-08-03 00:02:00,
2013-08-02 19:07:00,78.0,68.0,30.01,South,180,0.0,3.0,72,0.00,,,0.00,Rainwise IP-100,2013-08-03 00:07:00,
2013-08-02 19:12:00,78.0,68.0,30.01,South,180,1.0,3.0,72,0.00,,,0.00,Rainwise IP-100,2013-08-03 00:12:00,
2013-08-02 19:15:00,78.0,68.0,30.01,South,180,0.0,3.0,72,0.00,,,0.00,Rainwise IP-100,2013-08-03 00:15:00,
2013-08-02 19:20:00,78.0,68.0,30.01,South,180,0.0,3.0,72,0.00,,,0.00,Rainwise IP-100,2013-08-03 00:20:00,
2013-08-02 19:25:00,78.0,68.0,30.01,South,180,1.0,3.0,72,0.00,,,0.00,Rainwise IP-100,2013-08-03 00:25:00,
2013-08-02 19:30:00,78.0,68.0,30.01,South,180,1.0,3.0,72,0.00,,,0.00,Rainwise IP-100,2013-08-03 00:30:00,
2013-08-02 19:35:00,78.0,68.0,30.01,South,180,0.0,3.0,72,0.00,,,0.00,Rainwise IP-100,2013-08-03 00:35:00,
2013-08-02 19:40:00,78.0,68.0,30.01,South,180,0.0,3.0,72,0.00,,,0.00,Rainwise IP-100,2013-08-03 00:40:00,
2013-08-02 19:45:00,78.0,68.0,30.01,South,180,1.0,3.0,72,0.00,,,0.00,Rainwise IP-100,2013-08-03 00:45:00,
2013-08-02 19:50:00,78.0,68.0,30.01,South,180,1.0,3.0,72,0.00,,,0.00,Rainwise IP-100,2013-08-03 00:50:00,
2013-08-02 19:55:00,78.0,68.0,30.01,South,180,1.0,3.0,72,0.00,,,0.00,Rainwise IP-100,2013-08-03 00:55:00,
2013-08-02 20:00:00,78.0,68.0,30.01,South,180,0.0,3.0,72,0.00,,,0.00,Rainwise IP-100,2013-08-03 01:00:00,
2013-08-02 20:05:00,75.0,68.0,29.95,South,180,2.0,3.0,78,0.00,,,0.00,Rainwise IP-100,2013-08-03 01:05:00,
2013-08-02 20:10:00,75.0,68.0,29.95,South,180,0.0,2.0,78,0.00,,,0.00,Rainwise IP-100,2013-08-03 01:10:00,
2013-08-02 20:15:00,75.0,68.0,29.95,South,180,2.0,2.0,78,0.00,,,0.00,Rainwise IP-100,2013-08-03 01:15:00,
2013-08-02 20:20:00,75.0,68.0,29.95,South,180,0.0,2.0,78,0.00,,,0.00,Rainwise IP-100,2013-08-03 01:20:00,
2013-08-02 20:25:00,75.0,68.0,29.95,South,180,0.0,2.0,78,0.00,,,0.00,Rainwise IP-100,2013-08-03 01:25:00,
2013-08-02 20:30:00,75.0,68.0,29.95,South,180,0.0,2.0,78,0.00,,,0.00,Rainwise IP-100,2013-08-03 01:30:00,
2013-08-02 20:35:00,75.0,68.0,29.95,South,180,0.0,2.0,78,0.00,,,0.00,Rainwise IP-100,2013-08-03 01:35:00,
2013-08-02 20:40:00,75.0,68.0,29.95,South,180,2.0,2.0,78,0.00,,,0.00,Rainwise IP-100,2013-08-03 01:40:00,
2013-08-02 20:45:00,75.0,68.0,29.95,South,180,0.0,2.0,78,0.00,,,0.00,Rainwise IP-100,2013-08-03 01:45:00,
2013-08-02 20:50:00,75.0,68.0,29.95,South,180,0.0,2.0,78,0.00,,,0.00,Rainwise IP-100,2013-08-03 01:50:00,
2013-08-02 20:55:00,75.0,68.0,29.95,South,180,0.0,2.0,78,0.00,,,0.00,Rainwise IP-100,2013-08-03 01:55:00,
2013-08-02 21:00:00,75.0,68.0,29.95,South,180,0.0,2.0,78,0.00,,,0.00,Rainwise IP-100,2013-08-03 02:00:00,
2013-08-02 21:05:00,75.0,68.0,29.95,South,180,0.0,2.0,78,0.00,,,0.00,Rainwise IP-100,2013-08-03 02:05:00,
2013-08-02 21:10:00,75.0,68.0,29.95,South,180,2.0,2.0,78,0.00,,,0.00,Rainwise IP-100,2013-08-03 02:10:00,
2013-08-02 21:15:00,75.0,68.0,29.95,South,180,0.0,2.0,78,0.00,,,0.00,Rainwise IP-100,2013-08-03 02:15:00,
2013-08-02 21:20:00,75.0,68.0,29.95,South,180,0.0,2.0,78,0.00,,,0.00,Rainwise IP-100,2013-08-03 02:20:00,
2013-08-02 21:25:00,75.0,68.0,29.95,South,180,2.0,2.0,78,0.00,,,0.00,Rainwise IP-100,2013-08-03 02:25:00,
2013-08-02 21:30:00,74.0,70.0,29.96,SSW,202,0.0,2.0,87,0.00,,,0.00,Rainwise IP-100,2013-08-03 02:30:00,
2013-08-02 21:35:00,74.0,70.0,29.96,SSW,202,0.0,0.0,87,0.00,,,0.00,Rainwise IP-100,2013-08-03 02:35:00,
2013-08-02 21:40:00,74.0,70.0,29.96,SSW,202,0.0,0.0,87,0.00,,,0.00,Rainwise IP-100,2013-08-03 02:40:00,
2013-08-02 21:45:00,74.0,70.0,29.96,SSW,202,0.0,0.0,87,0.00,,,0.00,Rainwise IP-100,2013-08-03 02:45:00,
2013-08-02 21:50:00,74.0,70.0,29.96,SSW,202,0.0,0.0,87,0.00,,,0.00,Rainwise IP-100,2013-08-03 02:50:00,
2013-08-02 21:55:00,74.0,70.0,29.96,SSW,202,0.0,0.0,87,0.00,,,0.00,Rainwise IP-100,2013-08-03 02:55:00,
2013-08-02 22:00:00,74.0,70.0,29.96,SSW,202,0.0,0.0,87,0.00,,,0.00,Rainwise IP-100,2013-08-03 03:00:00,
2013-08-02 22:05:00,74.0,70.0,29.96,SSW,202,0.0,0.0,87,0.00,,,0.00,Rainwise IP-100,2013-08-03 03:05:00,
2013-08-02 22:10:00,74.0,70.0,29.96,SSW,202,0.0,0.0,87,0.00,,,0.00,Rainwise IP-100,2013-08-03 03:10:00,